Weather History for PAAK - December, 2013

Change the Weather History Date:

Monday, December 2, 2013

  Actual Average (PADK) Record (PADK)
Temperature  
Mean Temperature 38 °F -  
Max Temperature 42 °F 40 °F 49 °F (1979)
Min Temperature 33 °F 31 °F -2 °F (2011)
Degree Days  
Heating Degree Days 28    
Moisture  
Dew Point 33 °F    
Average Humidity 81    
Maximum Humidity 87    
Minimum Humidity 70    
Precipitation  
Precipitation 0.00 in - - ()
Sea Level Pressure  
Sea Level Pressure 30.05 in    
Wind  
Wind Speed 2 mph (North)    
Max Wind Speed 16 mph    
Max Gust Speed 25 mph    
Visibility 10 miles    
Events      
Averages and records for this station are not official NWS values.
T = Trace of Precipitation, MM = Missing Value Source: NWS Daily Summary

Daily Weather History Graph

Daily Weather History Graph

Search for Another Location

Airport or City:

Trip Planner

Search our weather history database for the weather conditions in past years. The results will help you decide how hot, cold, wet, or windy it might be!

Date:

Astronomy

Dec. 02, 2013 Rise Set
Actual Time 9:25 AM HST 5:26 PM HST
Civil Twilight 8:45 AM HST 6:07 PM HST
Nautical Twilight 8:02 AM HST 6:50 PM HST
Astronomical Twilight 7:21 AM HST 7:31 PM HST
Moon 9:01 AM HST (12/2) 5:47 PM HST (12/2)
Length of Visible Light 9h 21m
Length of Day
8h 01m
Waning Crescent, 0% of the Moon is Illuminated
Dec 2
Waning Crescent
Dec 2
New
Dec 9
First Quarter
Dec 16
Full
Dec 25
Last Quarter

Hourly Weather History & Observations

Time (HST) Temp. Windchill Dew Point Humidity Pressure Visibility Wind Dir Wind Speed Gust Speed Precip Events Conditions
12:16 AM 39.2 °F - 33.8 °F 81% 30.03 in 10.0 mi Calm Calm - N/A   Mostly Cloudy
12:36 AM 37.4 °F - 33.8 °F 87% 30.03 in 10.0 mi Calm Calm - N/A   Clear
12:56 AM 37.4 °F 34.9 °F 32.0 °F 81% 30.04 in 10.0 mi NNW 3.5 mph - N/A   Clear
1:16 AM 37.4 °F - 32.0 °F 81% 30.04 in 10.0 mi Calm Calm - N/A   Mostly Cloudy
1:36 AM 35.6 °F 32.8 °F 30.2 °F 81% 30.04 in 10.0 mi NNW 3.5 mph - N/A   Overcast
1:56 AM 37.4 °F - 32.0 °F 81% 30.04 in 10.0 mi Calm Calm - N/A   Overcast
2:16 AM 37.4 °F 34.9 °F 32.0 °F 81% 30.04 in 10.0 mi North 3.5 mph - N/A   Scattered Clouds
2:36 AM 37.4 °F 34.9 °F 30.2 °F 75% 30.04 in 10.0 mi North 3.5 mph - N/A   Clear
2:56 AM 37.4 °F 34.9 °F 30.2 °F 75% 30.05 in 10.0 mi West 3.5 mph - N/A   Clear
3:16 AM 37.4 °F - 30.2 °F 75% 30.05 in 10.0 mi Calm Calm - N/A   Clear
3:36 AM 35.6 °F 31.7 °F 30.2 °F 81% 30.06 in 10.0 mi North 4.6 mph - N/A   Clear
3:56 AM 33.8 °F 28.6 °F 28.4 °F 81% 30.06 in 10.0 mi North 5.8 mph - N/A   Clear
4:16 AM 35.6 °F 31.7 °F 30.2 °F 81% 30.07 in 10.0 mi North 4.6 mph - N/A   Clear
4:36 AM 35.6 °F - 30.2 °F 81% 30.07 in 10.0 mi Calm Calm - N/A   Clear
4:56 AM 35.6 °F - 30.2 °F 81% 30.07 in 10.0 mi Calm Calm - N/A   Clear
5:16 AM 35.6 °F 31.7 °F 30.2 °F 81% 30.08 in 10.0 mi NNW 4.6 mph - N/A   Clear
5:36 AM 37.4 °F - 30.2 °F 75% 30.09 in 10.0 mi Calm Calm - N/A   Clear
5:56 AM 35.6 °F - 28.4 °F 75% 30.09 in 10.0 mi Calm Calm - N/A   Clear
6:16 AM 35.6 °F 32.8 °F 30.2 °F 81% 30.09 in 10.0 mi NW 3.5 mph - N/A   Clear
6:36 AM 35.6 °F 32.8 °F 30.2 °F 81% 30.09 in 10.0 mi North 3.5 mph - N/A   Clear
6:56 AM 35.6 °F 32.8 °F 30.2 °F 81% 30.10 in 10.0 mi North 3.5 mph - N/A   Clear
7:16 AM 35.6 °F - 30.2 °F 81% 30.10 in 10.0 mi Calm Calm - N/A   Clear
7:36 AM 35.6 °F 31.7 °F 30.2 °F 81% 30.10 in 10.0 mi NNE 4.6 mph - N/A   Clear
7:56 AM 35.6 °F - 30.2 °F 81% 30.10 in 10.0 mi Calm Calm - N/A   Clear
8:16 AM 37.4 °F 33.8 °F 32.0 °F 81% 30.10 in 10.0 mi NNE 4.6 mph - N/A   Clear
8:36 AM 37.4 °F - 30.2 °F 75% 30.10 in 10.0 mi Calm Calm - N/A   Scattered Clouds
8:56 AM 37.4 °F - 32.0 °F 81% 30.10 in 10.0 mi Calm Calm - N/A   Partly Cloudy
9:16 AM 37.4 °F - 32.0 °F 81% 30.10 in 10.0 mi Calm Calm - N/A   Mostly Cloudy
9:36 AM 37.4 °F - 32.0 °F 81% 30.10 in 9.0 mi Calm Calm - N/A   Overcast
9:56 AM 37.4 °F - 32.0 °F 81% 30.11 in 6.0 mi Calm Calm - N/A   Overcast
10:16 AM 37.4 °F - 32.0 °F 81% 30.11 in 10.0 mi Calm Calm - N/A   Overcast
10:36 AM 37.4 °F - 32.0 °F 81% 30.12 in 10.0 mi Calm Calm - N/A   Overcast
10:56 AM 37.4 °F - 32.0 °F 81% 30.12 in 10.0 mi Calm Calm - N/A   Overcast
11:16 AM 37.4 °F - 32.0 °F 81% 30.12 in 10.0 mi Calm Calm - N/A   Overcast
11:36 AM 39.2 °F - 33.8 °F 81% 30.13 in 10.0 mi Calm Calm - N/A   Overcast
11:56 AM 39.2 °F 37.0 °F 33.8 °F 81% 30.12 in 10.0 mi SSW 3.5 mph - N/A   Overcast
12:16 PM 39.2 °F 35.9 °F 33.8 °F 81% 30.12 in 10.0 mi South 4.6 mph - N/A   Overcast
12:36 PM 39.2 °F - 33.8 °F 81% 30.11 in 10.0 mi Calm Calm - N/A   Overcast
12:56 PM 39.2 °F - 33.8 °F 81% 30.11 in 10.0 mi Calm Calm - N/A   Overcast
1:16 PM 39.2 °F - 33.8 °F 81% 30.11 in 10.0 mi Calm Calm - N/A   Overcast
1:36 PM 39.2 °F 37.0 °F 35.6 °F 87% 30.09 in 9.0 mi SSW 3.5 mph - N/A   Overcast
1:56 PM 39.2 °F - 33.8 °F 81% 30.09 in 10.0 mi Calm Calm - N/A   Overcast
2:16 PM 39.2 °F 37.0 °F 35.6 °F 87% 30.08 in 10.0 mi NNE 3.5 mph - N/A   Overcast
2:36 PM 39.2 °F - 35.6 °F 87% 30.07 in 10.0 mi Calm Calm - N/A   Overcast
2:56 PM 39.2 °F - 35.6 °F 87% 30.07 in 8.0 mi Calm Calm - N/A   Overcast
3:16 PM 39.2 °F - 35.6 °F 87% 30.06 in 10.0 mi Calm Calm - N/A   Overcast
3:36 PM 39.2 °F - 35.6 °F 87% 30.06 in 10.0 mi Calm Calm - N/A   Mostly Cloudy
3:56 PM 39.2 °F - 35.6 °F 87% 30.04 in 10.0 mi Calm Calm - N/A   Overcast
4:16 PM 39.2 °F - 35.6 °F 87% 30.04 in 10.0 mi Calm Calm - N/A   Overcast
4:36 PM 39.2 °F - 35.6 °F 87% 30.04 in 10.0 mi Calm Calm - N/A   Mostly Cloudy
4:56 PM 39.2 °F 35.9 °F 35.6 °F 87% 30.03 in 10.0 mi North 4.6 mph - N/A   Partly Cloudy
5:16 PM 37.4 °F 34.9 °F 33.8 °F 87% 30.03 in 10.0 mi SSW 3.5 mph - N/A   Clear
5:36 PM 39.2 °F - 35.6 °F 87% 30.03 in 10.0 mi Calm Calm - N/A   Scattered Clouds
5:56 PM 39.2 °F 37.0 °F 33.8 °F 81% 30.03 in 10.0 mi South 3.5 mph - N/A   Scattered Clouds
6:16 PM 41.0 °F 35.8 °F 35.6 °F 81% 30.03 in 10.0 mi East 8.1 mph - N/A   Mostly Cloudy
6:36 PM 42.8 °F 41.1 °F 35.6 °F 76% 30.02 in 10.0 mi South 3.5 mph - N/A   Overcast
6:56 PM - - - N/A% 30.02 in - NW 3.5 mph - N/A   Unknown
7:16 PM 39.2 °F - 33.8 °F 81% 30.03 in 10.0 mi Calm Calm - N/A   Overcast
7:36 PM 41.0 °F 38.0 °F 35.6 °F 81% 30.01 in 10.0 mi North 4.6 mph - N/A   Overcast
7:56 PM 42.8 °F 38.0 °F 35.6 °F 76% 30.01 in 10.0 mi North 8.1 mph 20.7 mph N/A   Overcast
8:16 PM 42.8 °F 35.8 °F 33.8 °F 70% 29.99 in 10.0 mi NE 13.8 mph 19.6 mph N/A   Overcast
8:36 PM 42.8 °F 36.6 °F 33.8 °F 70% 29.98 in 10.0 mi ENE 11.5 mph 25.3 mph N/A   Overcast
8:56 PM 42.8 °F 36.2 °F 33.8 °F 70% 29.97 in 10.0 mi ENE 12.7 mph 23.0 mph N/A   Overcast
9:16 PM 42.8 °F 35.1 °F 33.8 °F 70% 29.95 in 10.0 mi ENE 16.1 mph 20.7 mph N/A   Mostly Cloudy
9:36 PM 41.0 °F 35.8 °F 33.8 °F 76% 29.95 in 10.0 mi North 8.1 mph - N/A   Clear
9:56 PM 41.0 °F 37.1 °F 33.8 °F 76% 29.94 in 10.0 mi North 5.8 mph - N/A   Clear
10:16 PM 39.2 °F 33.6 °F 33.8 °F 81% 29.93 in 10.0 mi West 8.1 mph - N/A   Scattered Clouds
10:36 PM 39.2 °F 34.2 °F 33.8 °F 81% 29.93 in 10.0 mi NNE 6.9 mph - N/A   Mostly Cloudy
10:56 PM 39.2 °F 35.9 °F 33.8 °F 81% 29.93 in 10.0 mi ENE 4.6 mph - N/A   Overcast
11:16 PM 39.2 °F 33.6 °F 33.8 °F 81% 29.92 in 10.0 mi North 8.1 mph - N/A   Overcast
11:36 PM 39.2 °F 37.0 °F 33.8 °F 81% 29.91 in 10.0 mi North 3.5 mph - N/A   Overcast
11:56 PM 41.0 °F 34.7 °F 33.8 °F 76% 29.89 in 10.0 mi WSW 10.4 mph - N/A   Overcast